Location: Miami, Florida
(25.6830°N, 80.1700°W)
Time: 00:19:36
(UTC-04:00)

Vanguard 3 - All Passes

Search period start: 17 July 2018 00:00
Search period end: 27 July 2018 00:00
Orbit: 508 x 3264 km, 33.3° (Epoch: 16 July)

Date Brightness Start Highest point End Pass type
(mag) Time Alt. Az. Time Alt. Az. Time Alt. Az.
17 Jul - 00:10:45 10° WNW 00:16:18 51° NNE 00:20:08 10° E visible
17 Jul - 02:24:14 10° W 02:27:36 27° SSW 02:30:48 10° SSE night (unlit)
17 Jul - 14:00:33 10° SSE 14:02:49 10° SE 14:05:03 10° SE daylight
17 Jul - 16:03:20 10° SSW 16:19:32 35° SSE 16:31:07 10° E daylight
17 Jul - 18:18:10 10° SW 18:34:58 75° SSE 18:44:28 10° ENE daylight
17 Jul - 20:36:54 10° W 20:49:00 59° NNW 20:55:40 10° ENE visible
17 Jul - 22:55:03 10° WNW 23:02:18 43° N 23:06:48 10° ENE visible
18 Jul - 01:09:34 10° WNW 01:14:23 71° SSW 01:18:03 10° ESE visible
18 Jul - 14:49:12 10° S 15:03:04 24° SE 15:14:33 10° E daylight
18 Jul - 17:01:13 10° SW 17:19:11 57° SSE 17:30:31 10° ENE daylight
18 Jul - 19:18:44 10° WSW 19:34:04 77° NNW 19:42:27 10° ENE daylight
18 Jul - 21:38:05 10° WNW 21:47:55 47° N 21:53:34 10° ENE visible
18 Jul - 23:54:32 10° WNW 00:00:50 63° NNE 00:04:55 10° E visible
19 Jul - 02:08:51 10° W 02:11:57 20° SW 02:14:45 10° SSE night (unlit)
19 Jul - 13:38:10 10° SSE 13:46:24 14° SE 13:54:10 10° ESE daylight
19 Jul - 15:45:20 10° SSW 16:02:54 42° SE 16:15:41 10° E daylight
19 Jul - 18:00:47 10° WSW 18:18:36 83° SSE 18:28:55 10° ENE daylight
19 Jul - 20:20:06 10° W 20:33:09 57° NNW 20:40:20 10° ENE visible
19 Jul - 22:38:34 10° WNW 22:46:48 50° N 22:51:39 10° E visible
20 Jul - 00:53:38 10° WNW 00:58:49 54° SSW 01:02:32 10° SE visible
20 Jul - 14:30:54 10° SSW 14:46:22 29° SE 14:59:24 10° E daylight
20 Jul - 16:43:37 10° SW 17:02:35 65° SSE 17:14:54 10° ENE daylight
20 Jul - 19:01:39 10° WSW 19:17:54 72° NNW 19:26:58 10° ENE daylight
20 Jul - 21:21:26 10° WNW 21:32:16 50° N 21:38:21 10° ENE visible
20 Jul - 23:38:13 10° WNW 23:45:19 77° NNE 23:49:40 10° ESE visible
21 Jul - 01:53:37 10° WSW 01:56:14 15° SW 01:58:32 10° S night (unlit)
21 Jul - 13:18:47 10° S 13:29:47 18° SE 13:40:14 10° ESE daylight
21 Jul - 15:27:34 10° SSW 15:46:07 48° SE 16:00:03 10° ENE daylight
21 Jul - 17:43:29 10° WSW 18:02:08 90° WNW 18:13:18 10° ENE daylight
21 Jul - 20:03:14 10° W 20:17:14 57° N 20:25:00 10° ENE daylight
21 Jul - 22:22:00 10° WNW 22:31:14 57° N 22:36:30 10° E visible
22 Jul - 00:37:38 10° WNW 00:43:10 42° SW 00:46:59 10° SE visible
22 Jul - 14:12:57 10° SSW 14:29:30 34° SE 14:43:54 10° E daylight
22 Jul - 16:26:09 10° SW 16:45:51 72° SSE 16:59:09 10° ENE daylight
22 Jul - 18:44:36 10° W 19:01:41 69° NNW 19:11:27 10° ENE daylight
22 Jul - 21:04:39 10° WNW 21:16:33 54° N 21:23:09 10° ENE visible
22 Jul - 23:21:48 10° WNW 23:29:43 88° SSW 23:34:22 10° ESE visible
23 Jul - 01:38:37 10° WSW 01:40:24 12° SW 01:42:01 10° SSW night (unlit)
23 Jul - 13:00:17 10° S 13:12:59 21° SE 13:25:24 10° E daylight
23 Jul - 15:10:02 10° SW 15:29:11 55° SE 15:44:14 10° ENE daylight
23 Jul - 17:26:16 10° WSW 17:45:36 84° NNW 17:57:37 10° ENE daylight
23 Jul - 19:46:19 10° W 20:01:16 58° N 20:09:39 10° ENE daylight
23 Jul - 22:05:18 10° WNW 22:15:36 66° NNE 22:21:18 10° E visible
24 Jul - 00:21:34 10° WNW 00:27:24 35° SW 00:31:22 10° SSE visible
24 Jul - 11:55:03 10° SE 11:56:36 10° SE 11:58:10 10° SE daylight
24 Jul - 13:55:18 10° SSW 14:12:30 39° SE 14:28:08 10° E daylight
24 Jul - 16:08:52 10° SW 16:29:00 78° SSE 16:43:18 10° ENE daylight
24 Jul - 18:27:34 10° W 18:45:25 67° NNW 18:55:56 10° ENE daylight
24 Jul - 20:47:46 10° WNW 21:00:47 58° N 21:07:55 10° E visible
24 Jul - 23:05:17 10° WNW 23:14:01 74° SSW 23:19:01 10° ESE visible
25 Jul - 12:42:19 10° S 12:56:02 25° SE 13:10:00 10° E daylight
25 Jul - 14:52:43 10° SW 15:12:09 61° SSE 15:28:15 10° ENE daylight
25 Jul - 17:09:10 10° WSW 17:28:59 80° NNW 17:41:53 10° ENE daylight
25 Jul - 19:29:21 10° W 19:45:15 59° N 19:54:17 10° ENE daylight
25 Jul - 21:48:28 10° WNW 21:59:53 75° NNE 22:06:03 10° ESE visible
26 Jul - 00:05:26 10° W 00:11:34 29° SW 00:15:39 10° SSE visible
26 Jul - 11:33:08 10° SSE 11:39:54 13° SE 11:47:03 10° ESE daylight
26 Jul - 13:37:56 10° SSW 13:55:22 44° SE 14:12:08 10° ENE daylight
26 Jul - 15:51:45 10° WSW 16:12:05 84° SSE 16:27:21 10° ENE daylight
26 Jul - 18:10:34 10° W 18:29:05 66° NNW 18:40:21 10° ENE daylight
26 Jul - 20:30:48 10° WNW 20:44:56 63° N 20:52:38 10° E visible
26 Jul - 22:48:40 10° WNW 22:58:13 63° SSW 23:03:35 10° SE visible
